Siren, WI

2:38 AM CDT on July 25, 2017 (GMT -0500)
Burnett County

Weather History for KRZN - October, 2013

Change the Weather History Date:

Wednesday, October 30, 2013

  Actual Average Record
Temperature  
Mean Temperature 42 °F -  
Max Temperature 48 °F - - ()
Min Temperature 35 °F - - ()
Degree Days  
Heating Degree Days 24    
Moisture  
Dew Point 41 °F    
Average Humidity 98    
Maximum Humidity 99    
Minimum Humidity 97    
Precipitation  
Precipitation 0.10 in - - ()
Sea Level Pressure  
Sea Level Pressure 29.93 in    
Wind  
Wind Speed 2 mph (ESE)    
Max Wind Speed 6 mph    
Max Gust Speed -    
Visibility 3 miles    
Events Fog , Rain    
Averages and records for this station are not official NWS values.
T = Trace of Precipitation, MM = Missing Value Source: NWS Daily Summary

Daily Weather History Graph

Daily Weather History Graph

Search for Another Location

Airport or City:

Trip Planner

Search our weather history database for the weather conditions in past years. The results will help you decide how hot, cold, wet, or windy it might be!

Date:

Astronomy

Oct. 30, 2013 Rise Set
Actual Time 7:47 AM CDT 5:58 PM CDT
Civil Twilight 7:16 AM CDT 6:29 PM CDT
Nautical Twilight 6:41 AM CDT 7:04 PM CDT
Astronomical Twilight 6:06 AM CDT 7:38 PM CDT
Moon 3:24 AM CDT (10/30) 3:54 PM CDT (10/30)
Length of Visible Light 11h 13m
Length of Day
10h 11m
Waning Crescent, 17% of the Moon is Illuminated
Oct 30
Waning Crescent
Nov 3
New
Nov 9
First Quarter
Nov 17
Full
Nov 25
Last Quarter

Hourly Weather History & Observations

Time (CDT) Temp. Windchill Dew Point Humidity Pressure Visibility Wind Dir Wind Speed Gust Speed Precip Events Conditions
12:15 AM 35.1 °F 32.2 °F 34.3 °F 97% 30.11 in 10.0 mi ENE 3.5 mph - N/A   Overcast
12:35 AM 35.1 °F - 34.3 °F 97% 30.11 in 10.0 mi Calm Calm - N/A   Overcast
12:55 AM 35.2 °F - 34.7 °F 98% 30.11 in 10.0 mi Calm Calm - N/A   Drizzle
1:15 AM 35.2 °F - 34.7 °F 98% 30.10 in 10.0 mi Calm Calm - N/A   Light Drizzle
1:35 AM 35.4 °F - 34.7 °F 97% 30.10 in 5.0 mi Calm Calm - N/A   Drizzle
1:55 AM 35.6 °F - 34.9 °F 97% 30.09 in 7.0 mi Calm Calm - 0.01 in Rain Rain
2:15 AM 35.6 °F - 34.9 °F 97% 30.09 in 10.0 mi Calm Calm - N/A   Overcast
2:35 AM 35.6 °F - 35.1 °F 98% 30.08 in 7.0 mi Calm Calm - N/A   Overcast
2:55 AM 35.6 °F 32.8 °F 35.1 °F 98% 30.08 in 7.0 mi ENE 3.5 mph - N/A   Overcast
3:15 AM 35.8 °F - 35.2 °F 98% 30.08 in 7.0 mi Calm Calm - N/A   Overcast
3:35 AM 35.8 °F - 35.4 °F 99% 30.08 in 7.0 mi Calm Calm - N/A   Drizzle
3:55 AM 36.1 °F - 35.6 °F 98% 30.07 in 5.0 mi Calm Calm - N/A   Light Drizzle
4:15 AM 36.1 °F - 35.6 °F 98% 30.07 in 4.0 mi Calm Calm - N/A   Light Drizzle
4:35 AM 36.1 °F 32.3 °F 35.8 °F 99% 30.05 in 4.0 mi East 4.6 mph - N/A   Overcast
4:55 AM 36.5 °F - 35.8 °F 97% 30.05 in 5.0 mi Calm Calm - N/A   Overcast
5:15 AM 36.5 °F - 36.1 °F 99% 30.05 in 5.0 mi Calm Calm - N/A   Overcast
5:35 AM 36.7 °F - 36.5 °F 99% 30.05 in 5.0 mi Calm Calm - N/A   Overcast
5:55 AM 36.7 °F - 36.5 °F 99% 30.05 in 5.0 mi Calm Calm - N/A   Overcast
6:15 AM 36.9 °F - 36.5 °F 99% 30.05 in 4.0 mi Calm Calm - N/A   Overcast
6:35 AM 36.9 °F - 36.5 °F 99% 30.04 in 4.0 mi Calm Calm - N/A   Overcast
6:55 AM 37.4 °F - 36.9 °F 98% 30.03 in 4.0 mi Calm Calm - N/A   Overcast
7:15 AM 37.4 °F 34.9 °F 36.9 °F 98% 30.02 in 4.0 mi ENE 3.5 mph - N/A   Overcast
7:35 AM 37.4 °F - 37.0 °F 99% 30.01 in 3.0 mi Calm Calm - N/A   Overcast
7:55 AM 37.6 °F - 37.4 °F 99% 30.02 in 2.5 mi Calm Calm - N/A   Overcast
8:15 AM 37.6 °F - 37.4 °F 99% 30.01 in 1.2 mi Calm Calm - N/A   Overcast
8:35 AM 37.9 °F 35.5 °F 37.6 °F 99% 30.01 in 1.2 mi ENE 3.5 mph - N/A   Overcast
8:55 AM 38.3 °F 35.9 °F 37.9 °F 99% 30.01 in 1.2 mi East 3.5 mph - N/A   Drizzle
9:15 AM 38.5 °F 36.1 °F 38.3 °F 99% 30.01 in 1.2 mi East 3.5 mph - 0.01 in   Drizzle
9:35 AM 38.8 °F - 38.5 °F 99% 30.02 in 1.8 mi Calm Calm - 0.01 in   Drizzle
9:55 AM 39.2 °F - 39.0 °F 99% 30.01 in 2.0 mi Calm Calm - 0.01 in   Overcast
10:15 AM 39.6 °F 37.4 °F 39.2 °F 99% 30.01 in 1.8 mi ENE 3.5 mph - N/A   Overcast
10:35 AM 40.1 °F 36.9 °F 39.4 °F 97% 29.99 in 1.8 mi East 4.6 mph - N/A   Overcast
10:55 AM 40.3 °F 38.2 °F 39.7 °F 98% 29.99 in 1.8 mi ESE 3.5 mph - N/A   Overcast
11:15 AM 40.6 °F 38.6 °F 40.1 °F 98% 29.98 in 1.5 mi ESE 3.5 mph - 0.01 in   Overcast
11:35 AM 41.2 °F - 40.6 °F 98% 29.96 in 1.5 mi Calm Calm - 0.01 in   Overcast
11:55 AM 41.5 °F - 41.0 °F 98% 29.95 in 1.5 mi Calm Calm - 0.01 in   Overcast
12:15 PM 42.3 °F 39.4 °F 41.7 °F 98% 29.93 in 1.0 mi East 4.6 mph - N/A   Overcast
12:35 PM 42.3 °F 40.5 °F 41.7 °F 98% 29.91 in 1.0 mi ENE 3.5 mph - N/A   Overcast
12:55 PM 43.0 °F - 42.4 °F 98% 29.91 in 1.0 mi Calm Calm - N/A   Overcast
1:15 PM 43.7 °F 41.1 °F 43.0 °F 97% 29.88 in 1.0 mi East 4.6 mph - N/A   Overcast
1:35 PM 44.6 °F - 43.9 °F 97% 29.89 in 1.2 mi Calm Calm - N/A   Overcast
1:55 PM 44.8 °F - 44.1 °F 97% 29.89 in 1.0 mi Calm Calm - N/A   Overcast
2:15 PM 45.3 °F - 44.6 °F 97% 29.88 in 1.2 mi Calm Calm - N/A   Overcast
2:35 PM 45.5 °F - 44.6 °F 97% 29.88 in 1.0 mi Calm Calm - N/A   Overcast
2:55 PM 45.5 °F - 44.8 °F 97% 29.85 in 1.2 mi Calm Calm - N/A   Light Drizzle
3:15 PM 45.7 °F - 45.0 °F 97% 29.85 in 1.2 mi Calm Calm - N/A   Overcast
3:35 PM 45.9 °F - 45.1 °F 97% 29.83 in 1.0 mi Calm Calm - N/A   Overcast
3:55 PM 46.0 °F - 45.5 °F 98% 29.83 in 0.8 mi Calm Calm - N/A   Overcast
4:15 PM 46.4 °F 45.2 °F 45.5 °F 97% 29.81 in 0.5 mi ESE 3.5 mph - N/A Fog Fog
4:35 PM 46.6 °F - 46.0 °F 98% 29.81 in 0.8 mi SE 3.5 mph - N/A   Overcast
4:55 PM 46.8 °F - 46.2 °F 98% 29.80 in 1.2 mi ESE 3.5 mph - N/A   Overcast
5:15 PM 46.6 °F - 46.0 °F 98% 29.80 in 1.8 mi SE 3.5 mph - N/A   Overcast
5:35 PM 46.6 °F - 46.2 °F 99% 29.79 in 1.8 mi SE 4.6 mph - N/A   Overcast
5:55 PM 46.6 °F - 46.0 °F 98% 29.79 in 1.5 mi SSE 5.8 mph - N/A   Overcast
6:15 PM 46.6 °F - 46.0 °F 98% 29.78 in 1.8 mi SE 4.6 mph - N/A   Overcast
7:55 PM 46.8 °F - 46.4 °F 99% 29.76 in 2.5 mi SSE 4.6 mph - N/A   Overcast
8:15 PM 46.9 °F - 46.4 °F 98% 29.76 in 2.5 mi South 5.8 mph - N/A   Overcast
8:35 PM 47.3 °F - 46.6 °F 97% 29.74 in 2.0 mi SE 5.8 mph - N/A   Drizzle
8:55 PM 47.3 °F - 46.8 °F 98% 29.74 in 2.5 mi South 5.8 mph - 0.03 in Rain Heavy Rain
9:15 PM 47.3 °F - 46.6 °F 97% 29.74 in 3.0 mi SE 3.5 mph - 0.03 in Rain Light Rain
9:35 PM 47.5 °F - 46.9 °F 98% 29.73 in 3.0 mi SSE 3.5 mph - 0.03 in Rain Rain
9:55 PM 47.7 °F - 47.3 °F 99% 29.72 in 4.0 mi SSE 4.6 mph - 0.04 in   Overcast
10:15 PM 47.8 °F - 47.3 °F 98% 29.72 in 4.0 mi South 4.6 mph - N/A   Light Drizzle
10:35 PM 47.8 °F - 47.3 °F 98% 29.71 in 3.0 mi SSE 3.5 mph - N/A   Overcast
10:55 PM 48.2 °F - 47.5 °F 97% 29.71 in 3.0 mi Calm Calm - N/A   Overcast
11:15 PM 48.2 °F - 47.7 °F 98% 29.69 in 3.0 mi Calm Calm - N/A   Overcast
11:35 PM 48.2 °F - 47.5 °F 97% 29.68 in 2.0 mi Calm Calm - N/A   Overcast
11:55 PM 47.7 °F - 47.3 °F 99% 29.67 in 1.2 mi Calm Calm - N/A   Overcast